Location: Lewisville
(33.0462°N, 96.9942°W)
Time: 04:16:50
(UTC-06:00)

Envisat - Pass Details

Date: 05 February 2020
Orbit: 764 x 766 km, 98.2° (Epoch: 06 December)

Event Time Altitude Azimuth Distance (km) Brightness Sun altitude
Rises 06:43:52 0° 16° (NNE) 3,239 6.3 -8.2°
Reaches altitude 10° 06:46:12 10° 19° (NNE) 2,309 5.6 -7.8°
Maximum altitude 06:51:15 64° 101° (E) 847 3.6 -6.7°
Drops below altitude 10° 06:56:16 10° 183° (S) 2,294 5.7 -5.7°
Sets 06:58:35 0° 186° (S) 3,217 6.4 -5.3°
